Theta_e
349 348 349 350 350 353 351 351 352 352 352 351 352 356 356 358 359 355 355 355 357 356 357 356 356 357 354 354 353 352 350 351 353 351 352 348 346 354 354 354 354 354 353
350 351 349 349 350 350 352 351 349 350 352 351 355 357 357 357 358 360 359 357 358 358 358 358 357 355 356 355 354 353 351 352 352 354 352 350 350 351 353 354 354 352 351
350 350 351 350 351 351 349 349 349 350 351 355 356 357 359 359 358 360 359 359 359 358 358 359 354 352 353 354 356 353 351 356 348 352 354 351 351 351 351 352 354 353 353
349 349 349 349 349 349 348 350 351 350 351 354 356 358 359 359 358 357 358 357 356 354 355 356 354 355 356 356 356 352 353 353 352 349 350 349 347 349 350 349 349 352 353
353 352 352 352 351 353 352 352 353 355 356 360 359 359 360 358 354 354 359 359 357 358 356 357 354 354 354 355 353 351 351 351 347 348 348 344 346 349 350 346 348 351 352
355 355 356 359 358 358 358 358 358 362 361 359 359 357 355 349 347 351 353 360 359 357 358 356 356 351 349 349 348 342 341 349 350 349 352 348 344 344 342 344 345 345 351
358 358 360 361 361 361 361 359 358 358 357 356 354 349 341 334 338 344 351 356 356 356 355 354 353 351 349 350 350 348 346 346 342 344 349 348 349 347 344 348 348 348 347
360 361 363 360 358 356 356 355 354 353 350 349 347 345 338 328 330 335 343 350 352 351 349 348 350 348 346 346 349 349 349 349 348 347 347 349 351 351 351 350 350 350 348
362 361 358 357 356 355 353 351 350 346 343 341 340 339 337 326 324 336 341 343 344 345 342 340 342 343 343 344 346 348 347 347 344 342 342 341 341 341 342 346 347 348 347
361 359 357 355 351 347 344 343 340 339 338 337 337 335 334 330 323 326 334 336 342 343 343 334 328 330 332 333 338 340 341 339 338 338 340 344 343 344 342 342 344 346 345
355 349 345 343 342 342 341 340 340 339 338 337 336 334 331 331 324 326 331 335 334 333 333 333 331 329 328 329 334 334 332 331 337 337 337 337 337 337 336 337 337 337 338
343 341 341 341 338 339 340 339 338 337 336 335 335 333 333 329 327 327 331 333 334 333 333 332 329 329 328 328 330 329 331 333 333 333 334 335 334 332 332 332 333 332 334
340 340 340 338 338 338 337 336 334 334 334 333 332 331 330 331 330 327 327 329 331 331 330 328 328 329 330 330 326 327 328 328 328 329 329 329 329 329 329 328 327 326 327
340 340 339 338 336 335 333 333 332 331 331 331 331 330 325 323 323 327 330 331 330 332 330 329 328 327 324 322 319 318 318 316 316 316 316 316 315 316 316 317 316 317 317
339 338 337 335 335 334 330 330 332 324 324 327 325 323 320 316 311 311 316 321 321 322 321 322 320 319 317 317 317 316 315 315 315 315 315 315 314 314 315 315 315 316 317
338 336 335 335 334 333 331 324 323 319 319 317 318 316 311 309 309 309 308 309 314 316 318 318 318 318 318 318 317 317 316 316 315 315 314 314 314 313 313 313 313 314 314
337 336 334 334 333 331 330 323 316 312 312 312 313 314 313 311 312 313 314 314 315 316 319 318 318 318 318 318 318 318 317 317 316 314 314 313 313 312 312 312 312 313 313
337 335 334 333 332 331 328 325 320 317 316 314 312 312 312 312 312 313 315 316 319 319 319 319 319 319 319 319 319 318 318 317 317 315 314 313 312 311 311 311 311 311 310
336 333 333 332 331 330 329 326 323 322 320 318 316 314 313 313 313 314 318 320 319 319 319 319 319 319 318 318 318 318 318 318 316 316 314 313 312 311 310 310 310 309 309
333 331 331 330 330 330 329 326 326 324 322 321 321 322 320 318 320 321 321 319 318 318 318 319 319 319 318 318 318 318 317 316 316 316 314 312 311 310 310 309 309 309 309
329 327 327 329 329 329 327 326 325 323 321 320 321 319 319 318 319 318 317 317 317 316 316 316 317 316 317 317 317 316 316 316 315 315 313 312 310 310 308 308 309 308 308
328 327 328 328 328 328 326 326 323 321 320 319 319 314 309 314 317 316 316 315 315 314 314 314 313 313 313 314 315 315 315 315 314 312 311 310 309 308 307 308 307 307 306
328 328 328 328 328 327 327 325 321 320 319 318 318 317 315 316 315 315 314 314 314 314 313 313 312 311 311 312 312 312 314 313 312 310 308 307 306 307 307 306 306 306 306
327 327 326 326 326 325 323 320 320 319 319 318 316 315 315 315 315 316 315 315 314 314 313 311 311 312 312 313 312 312 310 309 308 307 305 305 306 306 305 305 306 307 308
325 325 324 325 324 320 319 319 319 319 318 318 317 316 316 316 316 316 315 315 315 314 313 311 310 311 311 312 312 311 309 304 302 303 303 303 303 304 305 306 307 308 309
323 322 321 320 319 319 319 319 319 319 319 318 318 317 317 317 316 316 316 316 316 315 313 310 310 310 310 310 308 307 304 303 302 300 300 300 303 304 306 307 307 307 308
Wind_Speed
22 22 21 19 19 18 18 16 16 14 12 12 12 13 15 16 15 16 14 14 15 15 15 14 17 17 16 15 17 14 13 13 11 18 14 11 25 6 6 7 12 16 18
22 20 20 20 19 19 18 17 15 14 13 13 13 13 15 18 17 17 16 15 16 16 16 17 17 17 17 17 16 12 11 9 9 13 17 16 9 17 13 13 11 15 18
20 20 20 20 18 18 17 16 14 13 12 12 14 14 15 16 16 17 18 17 18 18 15 15 12 18 14 15 12 12 10 10 14 12 16 15 16 16 18 16 14 16 15
17 16 16 16 15 15 14 13 11 11 11 13 14 13 12 13 13 15 16 17 18 15 13 12 12 12 10 12 12 11 9 10 12 13 15 15 18 21 18 12 19 19 16
14 13 12 11 11 10 8 9 9 9 10 10 8 7 6 8 6 10 9 11 12 10 10 6 8 11 13 11 9 7 10 12 12 8 12 16 18 18 17 8 16 28 21
14 14 13 12 10 9 8 8 8 4 2 2 0 3 4 5 5 8 7 8 6 5 6 4 5 4 5 10 11 11 10 8 12 12 10 8 14 16 19 13 13 29 8
13 13 12 11 10 9 8 7 7 6 5 6 6 7 6 7 6 5 5 6 4 5 6 5 2 1 1 3 7 9 11 14 17 14 11 8 9 11 13 16 13 10 16
15 14 12 13 14 13 13 11 9 7 7 5 5 5 6 8 7 3 3 4 6 9 9 7 8 5 2 4 5 5 7 6 6 8 9 10 8 8 8 10 11 13 17
17 15 15 15 13 12 10 8 7 7 6 6 7 6 6 9 8 5 5 2 4 6 8 10 8 7 6 5 6 6 6 4 3 5 6 5 5 6 5 6 8 7 7
17 15 13 11 11 11 10 10 8 8 7 7 7 7 7 8 10 5 5 5 3 6 7 11 11 7 6 6 6 7 6 7 6 6 6 7 6 6 6 6 9 9 8
16 15 13 12 12 12 12 12 11 8 9 8 7 8 9 8 11 10 8 6 5 4 8 10 11 11 9 8 8 8 7 7 6 4 4 3 4 10 10 9 9 9 11
17 16 14 14 13 13 13 12 10 10 10 8 7 8 7 10 11 11 12 11 9 10 9 8 8 11 12 12 11 12 9 10 7 7 9 10 10 11 12 11 11 10 9
18 16 15 15 14 13 13 13 12 10 9 8 6 6 7 7 7 10 11 10 11 10 8 8 8 9 7 11 14 12 11 9 9 8 7 7 7 8 9 10 11 12 13
19 17 17 16 16 14 13 10 9 8 6 6 5 5 6 5 5 5 2 4 5 5 2 5 3 5 7 8 10 11 11 12 11 10 10 10 11 11 11 12 14 14 16
19 19 18 17 16 14 12 6 12 13 9 6 5 8 5 7 8 10 7 6 7 4 5 3 4 5 6 6 7 8 9 10 10 9 9 10 10 11 12 13 13 13 14
20 20 19 18 17 14 14 14 14 10 6 9 11 11 14 12 11 11 10 8 6 4 3 4 5 5 6 6 6 7 8 10 11 11 12 12 13 14 15 16 15 15 16
19 20 20 18 16 16 15 15 15 13 14 13 13 13 11 11 10 9 10 8 4 5 1 4 4 5 6 6 6 7 7 7 7 10 11 11 12 14 15 16 15 16 17
18 18 19 17 17 17 16 15 14 14 13 11 11 11 9 8 6 4 4 6 7 1 4 4 4 3 4 5 6 7 7 9 7 10 12 12 14 15 16 17 18 18 19
19 20 17 16 16 17 17 17 15 13 12 12 9 6 5 3 2 2 0 6 4 5 3 5 5 6 6 7 7 9 9 10 9 7 9 12 14 15 17 18 19 19 20
21 19 16 16 15 16 16 15 13 11 10 11 10 10 9 8 10 11 7 1 4 5 6 7 7 7 8 9 10 10 12 12 11 11 10 12 14 16 18 19 20 21 21
24 22 18 18 18 16 15 13 12 11 9 8 6 6 3 3 2 1 3 2 3 5 6 7 9 10 10 11 11 13 14 14 13 12 11 12 15 18 19 19 20 21 23
26 27 22 19 18 16 14 13 12 11 9 8 9 5 5 8 3 1 0 1 3 4 6 7 10 11 11 12 12 13 14 14 13 13 13 15 18 19 19 20 22 22 23
26 29 26 22 18 16 14 13 12 10 9 6 6 11 8 6 2 2 1 2 4 5 7 9 10 10 10 11 12 12 12 11 9 9 14 16 17 18 20 21 22 22 22
25 26 27 22 20 19 17 15 13 10 10 7 6 5 4 4 4 4 2 3 5 8 9 10 9 9 10 10 8 6 5 5 8 12 12 15 17 20 20 21 20 21 23
20 20 24 21 20 19 16 15 13 12 10 9 7 6 6 5 4 3 2 3 5 8 10 9 9 8 7 8 7 5 8 13 12 12 12 15 17 18 19 20 20 23 25
16 15 18 20 20 17 17 15 13 13 11 9 8 6 6 5 5 4 5 5 6 10 9 10 9 9 8 8 2 8 14 11 12 15 16 15 16 18 18 20 21 22 26
Wind_Direction
212 216 213 217 221 223 229 231 235 244 245 241 242 242 245 245 244 240 236 238 240 242 241 245 231 235 241 238 229 236 250 250 245 271 292 256 245 321 186 204 210 220 230
212 215 218 219 225 225 228 233 235 239 239 233 237 247 253 253 249 245 243 243 242 246 249 252 250 243 236 237 248 244 270 280 280 270 271 272 264 230 242 238 222 224 224
205 206 214 213 218 227 232 234 236 229 227 230 239 251 256 254 256 252 251 251 245 247 250 256 268 267 258 240 239 252 260 274 271 271 281 280 272 252 254 248 236 238 254
202 204 202 216 214 222 216 221 222 223 232 247 254 257 263 268 265 271 265 263 260 265 265 265 263 260 255 249 244 240 257 264 255 256 265 287 293 279 270 301 260 255 238
196 193 197 202 209 207 212 214 224 234 247 248 250 254 282 284 294 306 292 282 268 256 257 248 257 243 250 238 232 258 259 241 263 291 292 285 294 277 278 294 277 279 236
174 197 185 188 188 194 207 219 224 217 187 211 204 60 42 22 341 344 309 297 302 289 278 277 288 329 274 251 238 271 264 277 271 288 286 256 271 279 288 294 305 296 350
176 179 171 181 177 168 163 160 147 129 118 96 77 76 55 25 9 1 13 357 10 24 22 7 37 76 42 278 283 288 279 269 257 268 287 288 292 277 281 288 289 294 303
162 158 153 144 143 141 134 124 120 113 102 90 82 71 58 26 26 18 51 30 42 53 46 44 82 77 61 4 342 320 313 310 260 256 261 281 298 307 297 289 289 282 276
149 140 145 146 144 141 137 133 133 126 114 107 91 75 62 37 38 55 64 161 68 60 58 60 54 46 46 20 14 360 354 20 39 22 353 330 325 327 321 306 295 293 293
144 141 143 144 140 135 134 133 127 128 126 112 92 77 68 49 50 59 64 84 78 110 102 56 30 34 16 17 24 10 351 24 348 325 314 302 314 328 326 320 318 318 312
141 139 138 137 132 132 128 126 128 115 114 105 103 89 72 66 52 61 74 68 75 97 81 61 54 60 59 64 56 46 29 7 330 299 311 317 31 46 45 18 3 341 325
139 137 138 138 135 131 126 122 122 124 118 126 138 127 93 69 59 65 78 74 76 85 86 89 74 65 57 62 52 51 45 30 11 2 22 19 6 1 351 347 347 339 317
140 140 141 132 129 129 128 129 132 144 145 163 152 113 96 105 80 73 75 84 79 82 87 90 72 43 20 26 39 41 28 20 14 18 11 5 353 341 332 328 330 325 320
141 143 141 139 137 135 139 148 144 146 151 148 141 121 101 78 57 39 86 106 68 89 139 80 78 90 70 56 34 34 30 26 20 14 4 357 349 348 340 342 334 333 328
148 150 153 149 149 139 91 75 100 64 53 122 106 81 111 92 67 63 54 50 50 58 352 34 48 44 49 39 43 40 36 25 18 8 0 354 348 343 338 340 326 326 326
157 163 161 160 160 142 135 91 97 93 95 101 98 104 97 103 89 77 73 80 89 45 39 57 53 38 31 26 23 16 21 16 4 357 354 349 344 339 338 328 330 325 321
173 168 163 161 159 152 145 140 122 103 109 108 107 103 107 100 85 83 78 77 41 327 88 53 37 23 13 5 1 360 359 7 345 351 344 341 340 335 333 328 328 324 324
176 168 168 167 162 159 154 151 147 146 139 129 125 122 113 99 84 62 351 306 266 89 27 19 355 350 342 340 335 338 339 326 346 343 337 342 339 335 330 330 326 328 326
167 171 173 169 170 164 160 162 163 160 154 149 148 155 156 154 174 148 31 315 349 334 343 325 323 323 333 323 326 317 318 308 312 311 329 333 331 329 327 323 321 319 322
170 170 168 168 164 170 167 172 163 164 166 172 189 174 174 208 225 225 222 327 321 325 338 323 312 310 306 307 301 303 302 311 312 311 326 323 323 325 322 320 319 320 319
162 164 167 164 170 173 174 174 167 172 181 173 149 118 157 262 261 215 276 352 336 346 343 330 323 315 304 298 306 305 305 309 313 315 324 320 319 317 318 316 316 317 315
159 157 162 164 167 170 178 176 172 181 178 175 151 135 207 222 251 243 165 316 359 336 327 325 316 317 314 311 309 310 309 312 322 328 326 321 317 318 317 318 317 315 316
163 158 157 165 168 170 172 176 180 177 178 181 172 161 184 212 164 168 182 354 342 333 330 324 322 317 317 313 310 308 305 321 325 334 323 317 315 315 316 314 316 313 312
169 165 152 161 164 170 174 176 176 177 177 173 180 174 174 186 180 147 250 328 333 337 333 328 321 317 321 319 320 354 17 330 333 320 317 313 311 314 313 310 309 309 310
170 167 150 156 162 172 170 179 174 182 189 173 178 193 194 197 199 212 266 300 323 328 330 324 314 314 318 320 310 302 313 320 315 317 321 312 308 309 306 307 311 319 322
160 164 151 154 171 171 174 180 176 185 189 189 193 197 214 226 232 249 272 285 302 324 324 324 314 304 301 302 237 290 310 316 319 321 319 313 310 312 312 312 312 309 304